{"data":{"norad_id":43233,"epoch":"2026-09-17T03:15:10.967040Z","epoch_age_seconds":308903,"freshness":"STALE","line1":"1 43233U 18024C   26260.13554360 -.00000028  00000+0  00000+0 0  9992","line2":"2 43233   0.0585   0.6907 0002823 173.8907 185.4236  5.00115891155557","mean_motion":5.00115891,"eccentricity":0.0002823,"inclination_deg":0.0585,"raan_deg":0.6907,"arg_perigee_deg":173.8907,"mean_anomaly_deg":185.4236,"bstar":0,"rev_number":15555,"period_min":287.93326225261,"perigee_km":8061.8051431208,"apogee_km":8069.9602366377,"semimajor_km":14444.019689879,"source":"CELESTRAK","updated_at":"2026-09-20T09:00:35.685933Z"}}